TimeMDT,TemperatureF,Dew PointF,Humidity,Sea Level PressureIn,VisibilityMPH,Wind Direction,Wind SpeedMPH,Gust SpeedMPH,PrecipitationIn,Events,Conditions,WindDirDegrees,DateUTC
12:53 AM,78.1,55.0,45,29.91,10.0,South,17.3,-,N/A,,Clear,180,2013-08-25 06:53:00
1:53 AM,77.0,55.0,47,29.91,10.0,SSW,13.8,-,N/A,,Clear,200,2013-08-25 07:53:00
2:53 AM,75.0,55.0,50,29.92,10.0,South,11.5,-,N/A,,Clear,190,2013-08-25 08:53:00
3:53 AM,73.0,55.0,53,29.93,10.0,South,10.4,-,N/A,,Clear,190,2013-08-25 09:53:00
4:53 AM,72.0,55.9,57,29.94,10.0,SSW,9.2,-,N/A,,Clear,200,2013-08-25 10:53:00
5:53 AM,73.0,55.0,53,29.94,10.0,SSW,11.5,-,N/A,,Clear,200,2013-08-25 11:53:00
6:53 AM,75.9,55.0,48,29.95,10.0,SSW,16.1,-,N/A,,Clear,200,2013-08-25 12:53:00
7:53 AM,81.0,55.0,41,29.96,10.0,SSW,18.4,25.3,N/A,,Clear,200,2013-08-25 13:53:00
8:53 AM,84.9,55.9,37,29.96,10.0,SSW,24.2,32.2,N/A,,Clear,200,2013-08-25 14:53:00
9:53 AM,88.0,55.0,32,29.97,10.0,SSW,26.5,33.4,N/A,,Clear,200,2013-08-25 15:53:00
10:53 AM,91.9,54.0,27,29.96,10.0,SSW,23.0,29.9,N/A,,Clear,210,2013-08-25 16:53:00
11:53 AM,93.9,53.1,25,29.94,10.0,South,18.4,31.1,N/A,,Clear,190,2013-08-25 17:53:00
12:53 PM,97.0,52.0,22,29.91,10.0,SSW,21.9,29.9,N/A,,Clear,200,2013-08-25 18:53:00
1:53 PM,97.0,51.1,21,29.91,10.0,South,16.1,28.8,N/A,,Clear,180,2013-08-25 19:53:00
2:53 PM,97.0,50.0,20,29.89,10.0,South,23.0,31.1,N/A,,Partly Cloudy,190,2013-08-25 20:53:00
3:53 PM,96.1,51.1,22,29.88,10.0,South,18.4,32.2,N/A,,Partly Cloudy,180,2013-08-25 21:53:00
4:53 PM,95.0,51.1,22,29.88,10.0,South,19.6,38.0,N/A,,Clear,180,2013-08-25 22:53:00
5:53 PM,93.9,48.0,21,29.89,10.0,South,25.3,34.5,N/A,,Clear,180,2013-08-25 23:53:00
6:53 PM,91.0,48.0,23,29.88,10.0,South,18.4,28.8,N/A,,Clear,180,2013-08-26 00:53:00
7:53 PM,86.0,48.9,28,29.91,10.0,South,12.7,-,N/A,,Clear,170,2013-08-26 01:53:00
8:53 PM,82.9,51.1,33,29.93,10.0,South,13.8,-,N/A,,Clear,170,2013-08-26 02:53:00
9:53 PM,82.0,53.1,37,29.94,10.0,South,17.3,-,N/A,,Clear,170,2013-08-26 03:53:00
10:53 PM,81.0,55.9,42,29.94,10.0,South,21.9,28.8,N/A,,Clear,180,2013-08-26 04:53:00
11:53 PM,80.1,55.9,43,29.94,10.0,South,20.7,28.8,N/A,,Clear,190,2013-08-26 05:53:00